Wind_Speed
46 45 43 38 33 29 27 29 24 24 20 22 23 25 25 25 23 24 28 29 24 24 20 17 22 14 14 14 12 7 10 8 9 9 10 10 10 9 10 10 9 18 20 23 24 28 31
47 44 41 36 33 30 30 24 24 24 22 16 17 20 22 23 20 21 24 22 24 19 26 24 17 12 11 13 11 9 9 6 10 7 9 8 7 9 14 14 15 17 18 21 23 29 30
50 41 37 33 31 32 29 26 23 22 18 18 11 14 17 18 18 16 16 22 15 19 22 20 11 12 9 12 11 9 8 9 10 9 11 12 13 12 8 11 13 18 23 24 29 31 28
55 46 34 32 30 30 28 26 20 19 18 18 10 11 12 12 11 6 9 14 17 16 13 8 11 7 9 8 8 8 9 10 12 14 15 16 11 12 13 17 18 16 22 25 25 19 28
55 37 34 35 36 30 26 23 18 15 17 12 11 11 9 10 13 18 17 14 15 16 8 11 7 4 5 5 5 7 9 10 16 16 13 11 12 11 12 14 16 12 20 17 28 19 23
38 35 35 32 32 32 28 21 19 16 16 8 8 11 6 10 12 16 22 20 10 7 9 7 6 3 2 3 4 7 9 12 14 16 12 11 14 13 14 14 14 10 17 21 26 19 21
36 38 39 28 30 26 23 22 18 19 17 8 5 8 5 8 14 15 21 17 10 4 7 4 2 3 3 3 4 6 6 8 11 13 14 13 19 22 18 18 21 22 26 25 20 20 22
38 37 36 28 26 21 20 21 14 16 11 3 6 8 12 16 12 23 20 11 9 5 9 5 1 2 4 5 7 7 8 9 8 10 9 17 24 22 19 19 20 24 24 25 23 16 14
37 33 28 21 20 17 13 13 14 5 3 1 7 12 19 12 16 13 19 14 9 12 9 8 2 5 5 5 4 6 6 8 9 14 16 19 20 18 17 18 17 17 19 20 23 18 17
34 29 25 17 18 14 6 7 3 4 3 1 5 12 19 17 15 13 7 7 12 14 7 4 5 5 4 6 9 11 11 8 7 8 6 7 6 12 15 17 10 17 13 18 24 17 17
29 24 22 14 12 16 8 4 10 9 9 3 14 15 18 12 13 12 7 4 14 13 4 4 6 5 10 9 6 10 12 9 5 3 3 5 6 6 3 4 5 14 15 17 11 16 15
31 21 16 10 9 13 12 10 12 11 5 9 20 17 13 12 9 10 3 14 14 3 3 5 6 7 8 8 12 8 10 14 7 7 9 9 9 5 5 4 7 14 15 8 21 16 6
49 27 14 7 11 15 16 11 10 11 8 13 19 21 17 12 7 7 16 18 7 4 9 7 7 9 10 6 7 12 10 11 8 7 9 10 8 8 5 7 7 10 14 4 0 3 2
26 18 13 8 12 16 16 14 12 13 10 19 19 20 14 17 9 13 16 6 7 7 7 10 10 10 3 0 6 4 9 11 11 7 8 6 4 8 7 14 8 11 10 5 3 2 3
25 16 17 13 14 12 15 14 14 15 16 21 17 14 13 11 15 24 9 10 5 8 11 12 9 3 2 6 3 2 6 8 8 5 5 7 6 5 6 13 11 12 9 9 5 12 4
40 37 29 23 21 26 27 24 24 27 27 24 21 21 15 14 17 16 16 9 8 12 15 8 4 5 5 5 4 1 5 8 5 6 4 5 6 5 8 11 10 12 15 2 2 3 4
49 47 40 41 38 40 41 37 35 30 25 23 22 20 18 15 16 11 12 11 13 15 5 7 6 4 6 5 6 5 5 7 6 2 7 6 3 4 8 11 16 19 19 9 9 3 1
54 52 48 51 49 45 40 34 28 24 21 20 19 19 19 20 17 13 8 10 14 9 7 9 8 6 7 6 7 5 5 5 3 5 5 5 3 3 5 11 16 19 17 13 5 9 18
44 46 40 41 38 35 32 31 29 24 20 18 13 14 15 14 16 10 9 12 12 6 6 8 5 9 12 8 4 6 6 9 8 5 3 3 4 6 4 3 12 12 20 6 8 4 17
35 35 36 33 30 30 27 26 27 23 22 16 11 9 13 12 13 13 9 11 9 6 9 10 9 11 8 9 11 7 6 7 6 7 5 2 3 4 4 3 8 11 18 14 14 18 26
26 28 29 27 25 21 21 20 18 18 19 18 18 13 10 8 10 11 9 14 8 4 6 7 8 9 9 5 6 7 7 7 6 6 5 5 6 9 9 8 10 12 16 20 23 17 19
21 19 20 19 21 18 16 15 12 11 12 15 15 10 11 7 9 10 9 13 9 5 2 6 5 6 8 8 5 4 4 3 4 6 4 6 3 6 7 6 7 10 10 13 20 17 15
10 15 12 12 14 17 17 15 12 9 10 14 11 8 7 4 8 10 9 12 10 6 3 2 1 3 6 6 6 7 6 5 3 4 3 3 3 4 3 6 3 3 7 6 9 12 11
3 1 8 10 9 9 12 12 10 9 11 10 8 6 4 3 8 10 10 10 10 7 3 4 3 1 3 3 4 5 5 3 3 3 2 2 2 3 5 5 2 3 1 2 5 6 6
8 9 8 5 2 2 3 6 5 7 8 5 4 2 2 2 8 9 10 12 10 7 4 4 4 1 2 2 3 6 8 5 3 1 2 2 1 3 3 5 8 7 4 3 3 2 2
11 12 13 12 11 8 4 4 4 11 9 4 2 2 3 2 10 10 12 12 11 7 6 6 5 2 1 2 5 2 2 2 3 6 2 4 3 1 3 2 2 3 3 5 3 2 4
13 15 13 12 12 12 11 9 8 10 10 7 6 5 5 4 9 10 15 14 13 12 8 7 5 3 3 1 2 2 3 6 2 2 4 3 3 7 6 5 6 7 5 4 2 3 3
14 16 14 11 10 12 12 12 12 11 10 7 5 7 5 5 10 9 11 13 13 12 10 5 7 7 5 2 1 3 2 5 5 6 7 3 3 3 4 5 5 4 4 3 2 3 7
14 14 15 11 9 13 14 13 15 14 13 9 5 6 6 7 7 10 13 15 14 14 11 9 7 4 5 5 5 4 4 6 7 5 7 5 7 4 6 5 7 8 7 7 9 9 11
Wind_Direction
317 313 310 309 305 300 300 302 302 299 288 271 264 260 259 258 255 252 242 251 256 256 281 295 314 294 283 286 266 267 272 281 286 285 274 268 265 261 269 269 272 253 256 257 255 259 255
316 312 307 304 296 291 291 290 296 303 303 281 267 265 259 256 254 250 243 240 251 253 271 286 298 277 297 275 275 259 276 274 277 286 274 266 251 228 248 246 247 260 257 253 252 252 252
322 319 312 301 293 293 286 283 283 287 299 299 281 269 262 256 252 252 251 229 241 251 273 286 263 281 282 263 264 278 279 268 272 276 266 251 246 249 239 264 259 252 260 263 256 243 244
329 322 309 308 297 295 284 284 284 279 292 294 293 277 255 241 231 205 228 203 230 252 269 251 268 276 259 263 274 283 275 276 276 272 260 261 260 259 263 265 264 276 270 269 280 259 258
329 324 313 305 301 296 288 289 285 284 276 272 289 272 246 219 210 194 213 221 214 242 252 252 268 257 252 247 303 286 277 281 281 272 271 287 279 278 272 282 287 271 268 268 285 267 250
332 332 319 305 304 302 298 304 302 291 282 286 287 280 239 208 201 201 206 215 237 216 228 256 271 222 229 303 319 302 279 273 270 281 284 260 268 249 252 248 253 267 282 290 285 262 249
332 330 329 316 308 287 289 282 282 282 278 272 277 267 185 183 195 194 180 217 169 181 206 216 184 203 310 338 312 305 304 286 269 264 251 267 252 258 291 276 281 277 283 280 283 279 251
331 331 326 321 325 312 300 291 295 282 275 282 245 208 167 140 157 160 187 184 178 182 180 129 185 34 354 320 310 307 300 313 303 292 268 244 255 287 283 263 269 266 268 265 291 276 239
337 340 344 342 332 321 317 288 291 262 207 240 217 189 176 168 152 173 190 170 198 176 139 138 83 35 356 4 10 339 3 330 302 276 270 257 263 281 286 270 273 265 268 272 269 280 223
340 346 346 353 358 347 8 1 166 123 103 170 183 163 182 196 175 189 167 171 153 155 125 128 78 43 10 118 49 25 13 339 336 322 316 280 308 284 266 271 261 267 272 260 257 254 242
348 353 354 356 20 39 30 44 101 103 111 119 141 159 172 172 163 163 168 157 148 157 113 130 94 84 78 77 63 33 40 35 20 15 349 338 348 323 302 313 273 268 273 296 261 231 227
4 2 2 6 35 38 44 63 83 98 102 132 147 136 128 126 164 168 164 138 149 134 113 125 119 109 84 53 46 34 10 19 19 20 13 4 354 350 315 329 269 271 299 256 221 243 199
352 5 4 48 42 54 65 78 100 123 122 130 134 143 165 123 152 118 120 129 127 35 122 117 120 122 72 2 25 28 357 24 9 3 3 353 9 0 359 321 296 274 297 236 161 34 39
9 40 27 62 69 76 82 80 130 121 107 134 145 150 124 135 91 103 123 106 67 99 89 116 126 93 86 350 18 29 8 21 20 12 343 357 323 308 315 304 277 307 306 12 30 57 58
33 30 41 61 59 76 79 83 111 127 118 135 129 120 137 122 89 126 105 61 90 121 110 122 71 129 31 25 72 50 358 40 16 352 357 346 328 360 325 343 5 350 10 357 337 121 95
50 48 54 75 77 86 93 95 108 117 124 121 117 115 110 89 108 120 78 81 98 112 131 95 9 64 76 51 39 26 3 358 355 20 51 17 317 26 9 1 15 353 2 343 318 10 42
65 59 71 84 93 98 99 104 109 114 115 118 121 107 93 85 123 123 75 89 110 136 98 98 71 46 52 65 56 62 17 338 352 38 44 21 347 352 14 10 31 32 8 355 310 313 83
72 72 75 79 85 86 89 87 91 100 102 110 114 91 90 100 125 98 79 111 135 138 89 83 70 87 70 73 61 62 45 10 39 75 85 52 11 336 29 33 45 34 5 360 14 14 76
75 83 80 83 85 86 90 95 94 93 96 83 91 82 85 108 115 95 98 125 137 112 62 91 78 72 63 56 72 58 46 34 43 49 50 34 17 338 333 27 35 19 18 46 45 32 27
76 75 87 87 87 88 90 87 88 88 90 89 73 79 82 84 129 127 117 143 143 98 64 83 75 49 56 41 51 55 35 36 44 38 40 65 51 78 78 47 43 30 45 63 75 75 86
87 80 78 86 97 99 94 98 86 81 77 81 72 67 68 102 130 146 150 152 148 124 80 52 54 49 49 31 56 34 31 34 36 32 47 81 73 71 54 52 53 55 52 71 77 95 101
101 99 87 87 102 102 105 112 110 91 68 63 60 47 53 87 137 147 145 165 165 151 93 61 71 39 27 35 62 26 23 14 21 55 52 70 66 44 32 38 40 45 58 78 102 92 122
97 111 104 98 95 99 102 108 112 102 84 69 56 56 47 113 157 163 163 173 183 177 187 167 80 49 27 47 64 59 44 58 49 37 62 65 15 15 314 359 40 261 46 84 101 136 137
246 90 103 113 105 114 116 108 104 113 106 81 73 45 34 124 172 188 182 181 183 193 210 203 189 51 57 53 45 51 42 38 25 25 0 98 12 350 302 349 7 325 81 119 125 137 152
267 281 300 350 48 80 83 115 105 122 125 114 100 55 354 115 181 192 191 190 176 177 177 166 170 136 103 53 31 23 357 9 3 295 262 285 327 334 3 324 303 305 268 229 195 161 219
268 261 264 284 299 291 219 230 158 154 151 160 143 144 186 198 182 186 195 190 180 189 190 183 181 181 189 3 48 359 295 276 283 332 301 244 238 227 304 289 255 278 252 221 234 169 162
293 268 274 274 277 291 267 242 239 205 173 174 157 136 142 209 183 193 196 200 201 195 205 204 213 225 233 293 354 294 273 307 294 276 280 305 261 233 252 259 259 276 218 205 155 151 236
324 270 262 266 264 269 269 263 256 236 219 192 203 177 167 177 184 192 203 203 207 208 206 206 215 227 223 235 253 274 257 278 291 287 293 266 255 262 223 238 278 324 246 266 312 317 313
322 306 256 262 270 269 265 258 263 244 222 218 220 259 195 173 186 199 201 206 207 212 219 222 220 218 221 205 228 248 276 286 290 292 284 269 236 239 242 258 286 296 284 291 296 298 309
Height
3052 3045 3040 3036 3032 3029 3026 3023 3021 3020 3019 3018 3018 3020 3023 3026 3028 3031 3034 3038 3043 3045 3046 3045 3044 3043 3044 3044 3042 3043 3042 3041 3042 3043 3044 3046 3047 3048 3050 3051 3052 3051 3053 3053 3054 3055 3054
3043 3038 3031 3027 3023 3020 3017 3016 3015 3015 3013 3012 3012 3013 3016 3018 3021 3024 3027 3032 3037 3040 3041 3042 3041 3040 3040 3041 3040 3041 3039 3040 3040 3041 3042 3043 3044 3045 3045 3045 3046 3047 3047 3047 3047 3046 3048
3035 3029 3022 3018 3015 3013 3010 3008 3008 3008 3008 3006 3007 3008 3010 3013 3016 3020 3023 3029 3032 3036 3038 3038 3037 3037 3037 3039 3038 3037 3037 3038 3038 3039 3040 3042 3042 3043 3044 3045 3044 3042 3041 3040 3037 3039 3040
3026 3020 3015 3011 3008 3005 3003 3001 3002 3002 3003 3004 3004 3005 3006 3009 3013 3016 3020 3024 3028 3032 3034 3034 3034 3034 3035 3036 3037 3036 3036 3036 3037 3038 3040 3040 3040 3041 3041 3039 3038 3038 3036 3033 3030 3034 3033
3015 3009 3005 3002 2999 2996 2995 2995 2996 2998 2998 3001 3002 3001 3003 3006 3009 3013 3016 3021 3025 3029 3030 3031 3032 3033 3035 3035 3034 3035 3035 3035 3035 3037 3036 3036 3037 3037 3037 3036 3034 3033 3029 3030 3026 3030 3030
3009 3003 2997 2994 2992 2989 2988 2989 2991 2994 2995 2998 2998 2998 3000 3003 3006 3010 3014 3018 3022 3026 3028 3029 3030 3034 3034 3034 3034 3034 3034 3034 3034 3033 3033 3035 3035 3033 3033 3032 3029 3029 3030 3027 3025 3026 3026
3004 2997 2992 2987 2985 2983 2984 2985 2986 2989 2991 2994 2996 2996 2998 3000 3002 3006 3011 3018 3024 3026 3026 3028 3031 3030 3032 3033 3033 3034 3033 3032 3032 3032 3032 3033 3031 3027 3029 3028 3028 3028 3027 3024 3021 3023 3022
2998 2992 2985 2981 2978 2977 2978 2980 2977 2984 2987 2990 2992 2994 2997 2993 3000 3006 3012 3014 3019 3024 3025 3027 3030 3030 3031 3032 3032 3032 3031 3032 3030 3029 3030 3031 3025 3027 3026 3026 3026 3024 3021 3018 3016 3017 3018
2994 2987 2981 2977 2975 2973 2973 2975 2978 2981 2984 2986 2989 2992 2996 2997 3002 3006 3012 3015 3018 3021 3025 3028 3030 3030 3031 3032 3032 3031 3030 3029 3029 3027 3027 3028 3025 3023 3023 3022 3021 3019 3019 3018 3016 3016 3016
2990 2984 2980 2976 2975 2973 2972 2974 2977 2982 2984 2986 2988 2993 2996 2999 3006 3007 3010 3014 3017 3021 3025 3031 3030 3031 3032 3032 3033 3031 3029 3030 3028 3027 3026 3024 3022 3020 3019 3019 3020 3019 3018 3017 3012 3017 3012
2986 2982 2979 2978 2976 2975 2975 2977 2980 2983 2984 2987 2989 2992 2995 3001 3004 3008 3013 3014 3018 3023 3026 3033 3032 3034 3033 3034 3033 3032 3030 3028 3028 3026 3026 3024 3021 3019 3018 3017 3019 3018 3015 3009 3007 3011 3014
2986 2982 2978 2978 2978 2976 2977 2980 2982 2984 2985 2988 2991 2995 2999 3004 3007 3010 3011 3015 3020 3026 3029 3032 3033 3034 3035 3034 3032 3033 3031 3030 3027 3025 3024 3022 3021 3020 3018 3016 3018 3016 3013 3011 3008 3005 3006
2982 2984 2980 2977 2979 2979 2981 2983 2985 2986 2988 2991 2995 2999 3002 3005 3009 3013 3015 3019 3023 3024 3031 3034 3034 3035 3035 3036 3035 3033 3033 3031 3029 3028 3025 3024 3021 3020 3018 3017 3016 3014 3010 3006 3006 3004 3006
2985 2982 2981 2981 2981 2984 2985 2986 2989 2991 2993 2995 2998 3003 3005 3009 3012 3014 3018 3023 3023 3029 3031 3033 3035 3036 3037 3038 3038 3037 3034 3033 3031 3030 3028 3027 3026 3021 3020 3017 3013 3012 3008 3008 3007 3006 3009
2987 2983 2982 2983 2985 2986 2989 2991 2993 2996 2997 3000 3003 3008 3010 3013 3014 3018 3023 3024 3027 3030 3034 3036 3037 3038 3040 3040 3039 3038 3036 3035 3033 3031 3033 3031 3026 3023 3022 3018 3018 3012 3013 3013 3011 3010 3011
2996 2992 2989 2988 2989 2990 2993 2997 3001 3003 3004 3007 3009 3011 3015 3016 3019 3023 3024 3026 3029 3032 3036 3038 3040 3040 3041 3041 3041 3039 3038 3035 3034 3033 3032 3033 3028 3026 3024 3022 3021 3018 3017 3016 3013 3012 3015
3004 3001 2997 2995 2996 2997 3000 3003 3006 3010 3013 3013 3016 3016 3017 3019 3023 3027 3027 3030 3033 3037 3039 3039 3041 3042 3042 3042 3042 3041 3040 3036 3034 3034 3034 3032 3031 3031 3028 3026 3024 3021 3019 3018 3016 3014 3012
3014 3012 3012 3009 3009 3010 3011 3013 3016 3018 3019 3022 3022 3021 3023 3024 3028 3029 3032 3034 3036 3040 3040 3040 3041 3042 3042 3042 3042 3041 3040 3036 3036 3035 3033 3034 3033 3032 3032 3031 3030 3027 3025 3021 3020 3020 3016
3026 3019 3021 3018 3019 3019 3019 3018 3019 3023 3025 3027 3027 3026 3027 3029 3031 3033 3035 3037 3040 3042 3041 3041 3043 3043 3042 3042 3044 3042 3041 3037 3037 3036 3036 3036 3035 3034 3033 3035 3034 3031 3027 3023 3022 3022 3023
3037 3033 3026 3027 3026 3026 3027 3028 3027 3028 3027 3030 3031 3031 3032 3032 3033 3035 3038 3040 3042 3043 3044 3044 3045 3045 3046 3045 3043 3044 3043 3041 3037 3038 3038 3037 3036 3037 3039 3040 3039 3036 3031 3028 3025 3027 3031
3042 3040 3037 3035 3033 3032 3032 3033 3034 3035 3034 3034 3033 3034 3035 3036 3037 3038 3040 3041 3044 3044 3046 3045 3046 3046 3045 3046 3046 3045 3044 3043 3041 3040 3039 3038 3038 3039 3039 3039 3039 3038 3035 3033 3031 3034 3036
3045 3044 3042 3040 3038 3038 3037 3036 3037 3037 3038 3037 3036 3037 3037 3037 3039 3041 3042 3043 3045 3046 3047 3047 3047 3047 3047 3046 3047 3046 3045 3044 3042 3042 3041 3040 3041 3041 3039 3039 3039 3038 3037 3038 3038 3039 3041
3052 3046 3045 3045 3044 3042 3041 3040 3040 3039 3040 3039 3040 3039 3040 3041 3041 3042 3043 3044 3045 3046 3048 3048 3048 3049 3049 3049 3048 3047 3046 3045 3044 3043 3042 3042 3041 3042 3042 3041 3040 3042 3040 3040 3041 3041 3042
3057 3054 3048 3046 3046 3045 3042 3040 3041 3040 3039 3040 3040 3041 3041 3042 3042 3043 3043 3044 3045 3046 3047 3048 3049 3049 3050 3049 3049 3048 3048 3047 3046 3045 3044 3042 3043 3043 3041 3040 3043 3041 3040 3041 3041 3042 3042
3058 3057 3055 3051 3050 3048 3045 3042 3040 3039 3039 3039 3040 3041 3041 3040 3041 3042 3044 3045 3046 3046 3047 3048 3049 3050 3050 3050 3049 3048 3048 3048 3046 3046 3045 3045 3044 3043 3043 3042 3042 3039 3039 3040 3040 3042 3043
3056 3053 3051 3051 3049 3047 3045 3046 3043 3041 3041 3041 3040 3038 3039 3040 3040 3040 3043 3044 3046 3047 3047 3048 3049 3049 3050 3050 3049 3050 3050 3049 3048 3046 3045 3045 3044 3045 3044 3044 3041 3039 3039 3039 3040 3041 3040
3053 3051 3050 3050 3051 3048 3047 3046 3045 3043 3042 3041 3040 3039 3037 3038 3038 3040 3041 3043 3043 3045 3047 3048 3048 3049 3049 3049 3049 3049 3049 3048 3047 3046 3045 3044 3043 3043 3043 3042 3038 3037 3037 3038 3039 3043 3039
3049 3046 3046 3047 3046 3046 3047 3046 3046 3046 3045 3043 3041 3038 3037 3036 3037 3039 3040 3041 3043 3044 3044 3047 3049 3047 3048 3048 3049 3049 3047 3047 3045 3044 3043 3043 3043 3042 3041 3039 3037 3034 3035 3036 3036 3035 3036
3044 3043 3043 3045 3043 3042 3043 3043 3045 3045 3044 3044 3042 3042 3037 3036 3037 3037 3038 3040 3041 3042 3044 3044 3046 3046 3046 3046 3047 3046 3046 3045 3044 3042 3040 3040 3040 3040 3039 3036 3034 3034 3034 3034 3033 3033 3033